Home   Weather   Weno   Past weeks

Flag for Micronesia Past Weather in Weno, Truk, Micronesia — Yesterday and Last 2 Weeks

Now
84 °F

Partly sunny.


Feels Like: 94 °F
Forecast: 80 / 85 °F
Wind: 12 mph from Northeast

Location: Truk Intl / Moen Island

Current Time: Jan 19, 2017 at 7:01:36 pm

Latest Report: Jan 19, 2017 at 5:54 pm


Visibility: 15 mi

Pressure: 29.82 "Hg

Humidity: 80%

Dew Point: 77 °F

Location of WenoLocation

Past Weather in Weno — Graph

°F

Weno Temperature Yesterday

Maximum temperature yesterday: 87 °F (at 2:50 pm)
Minimum temperature yesterday: 80 °F (at 4:50 am)
Average temperature yesterday: 84 °F

High & Low Weather Summary for the Past Weeks

 TemperatureHumidityPressure
High90 °F (Jan 13, 12:50 pm)100% (Jan 7, 9:12 am)29.93 "Hg (Jan 7, 9:12 am)
Low78 °F (Jan 9, 6:52 am)62% (Jan 16, 2:50 pm)29.64 "Hg (Jan 6, 2:52 pm)
Average83 °F86%29.78 "Hg
* Reported Jan 4 5:52 pm — Jan 19 5:54 pm, Weno, Weather by CustomWeather, © 2017

Note: Actual official high and low records may vary slightly from our data, if they occured in-between our weather recording intervals... More about our weather records

Advertising

Weno Weather History for the Previous 24 Hours

Scroll right to see more
 ConditionsComfort  
Time TempWeatherWind HumidityBarometerVisibility
5:54 pm
Thu, Jan 19
84 °FPartly sunny.12 mph80%29.82 "Hg15 mi
4:59 pm85 °FScattered clouds.10 mph87%29.80 "Hg15 mi
3:50 pm87 °FScattered clouds.12 mph84%29.79 "Hg15 mi
2:50 pm87 °FScattered clouds.12 mph87%29.78 "Hg15 mi
1:50 pm86 °FScattered clouds.12 mph83%29.80 "Hg15 mi
12:54 pm87 °FScattered clouds.12 mph87%29.82 "Hg15 mi
11:52 am86 °FScattered clouds.8 mph87%29.84 "Hg15 mi
10:50 am86 °FScattered clouds.14 mph87%29.87 "Hg15 mi
9:50 am87 °FScattered clouds.10 mph85%29.89 "Hg15 mi
8:50 am86 °FPartly sunny.14 mph85%29.91 "Hg15 mi
7:53 am85 °FScattered clouds.12 mph81%29.89 "Hg15 mi
6:52 am83 °FScattered clouds.14 mph82%29.87 "Hg15 mi
5:53 am83 °FPassing clouds.14 mph81%29.85 "Hg15 mi
4:50 am82 °FPassing clouds.12 mph83%29.83 "Hg15 mi
3:50 am82 °FPassing clouds.12 mph84%29.83 "Hg15 mi
2:51 am82 °FPassing clouds.9 mph84%29.83 "Hg15 mi
1:51 am82 °FPassing clouds.10 mph83%29.83 "Hg15 mi
12:50 am82 °FMostly cloudy.10 mph83%29.85 "Hg15 mi
11:51 pm
Wed, Jan 18
83 °FMostly cloudy.9 mph80%29.87 "Hg15 mi
10:53 pm83 °FMostly cloudy.12 mph81%29.88 "Hg15 mi
9:50 pm83 °FMostly cloudy.12 mph82%29.89 "Hg15 mi
8:50 pm83 °FPassing clouds.9 mph83%29.89 "Hg15 mi
7:56 pm83 °FPassing clouds.8 mph77%29.89 "Hg15 mi
Weather by CustomWeather, © 2017

See weather overviewHow to use our weather pages